Wind_Speed
27 27 28 28 28 28 25 23 23 23 23 23 22 23 22 21 20 19 18 17 17 17 17 16 15 14 14 13 12 12 11 11 11 11 11 11 10 10 9 9 8 8 7 7 6 6 5 5 5
28 28 29 29 29 28 25 23 23 24 24 24 24 24 24 22 21 20 19 18 18 18 18 17 17 16 15 15 14 13 13 12 12 12 12 12 11 11 11 10 10 9 8 8 7 7 7 6 6
30 30 30 30 29 27 25 24 24 25 26 26 25 25 24 23 22 21 21 20 19 19 19 19 18 18 17 16 16 15 14 14 13 13 13 13 12 12 12 11 11 10 10 9 9 8 8 8 7
32 32 32 32 30 27 26 25 26 26 27 26 26 26 25 25 24 23 22 22 21 20 20 19 19 19 19 18 17 16 16 15 15 15 14 14 13 13 12 12 11 11 11 10 10 9 9 9 8
34 35 35 33 30 28 27 27 27 28 28 27 27 27 26 26 26 25 24 23 23 22 22 21 21 20 20 20 19 18 18 17 17 16 15 15 15 14 13 13 12 12 11 11 11 10 10 9 9
36 37 37 34 32 30 30 29 29 29 29 29 28 28 27 27 27 26 26 25 24 24 23 22 22 22 21 21 21 20 19 19 18 17 17 16 16 15 14 14 13 13 13 12 12 12 11 10 10
38 39 38 36 34 33 32 31 31 31 31 30 30 30 29 28 28 27 27 26 25 25 24 23 23 23 23 23 22 22 21 21 20 19 19 18 17 17 16 15 15 14 14 14 13 13 12 12 11
40 41 40 38 36 35 34 34 33 34 34 32 32 31 30 29 29 28 28 28 27 26 26 25 25 25 24 24 24 23 23 22 22 22 21 20 19 18 18 17 17 16 16 15 15 14 14 13 13
42 42 41 39 38 37 37 36 36 36 36 35 34 33 32 32 31 30 30 29 29 28 28 27 27 26 26 25 24 24 24 24 24 23 23 22 21 20 19 19 18 18 17 17 16 16 15 15 14
44 44 41 40 40 40 39 39 38 38 38 37 36 35 34 34 33 32 31 31 30 29 29 29 29 28 28 27 26 26 26 25 25 25 24 23 23 22 21 20 20 20 19 18 18 17 17 16 16
45 44 42 42 42 42 42 41 40 40 40 38 37 37 36 35 35 34 34 33 32 31 31 30 30 30 30 29 28 28 27 27 26 26 26 25 24 24 23 22 22 21 21 20 20 19 18 18 18
47 46 45 44 44 44 44 44 43 42 42 41 40 39 38 37 36 36 35 35 34 33 32 32 32 32 31 31 30 30 29 29 28 28 28 27 27 26 25 24 24 23 22 22 22 21 20 20 19
49 48 47 47 47 46 46 46 45 45 44 43 43 41 40 39 38 37 37 36 35 35 34 34 33 33 33 33 32 32 31 30 30 30 30 29 29 27 27 26 25 24 24 23 23 23 23 22 21
49 49 49 49 49 49 49 48 47 45 45 45 44 43 42 41 40 39 38 37 37 36 35 35 35 34 34 34 34 34 33 31 31 31 31 31 30 29 29 28 26 26 25 24 24 24 24 24 23
51 52 51 51 51 50 51 50 48 46 47 47 46 45 44 43 42 41 39 39 38 38 37 36 36 36 36 36 35 35 35 33 32 32 31 31 30 30 30 30 29 28 27 27 26 26 25 25 25
53 54 54 52 52 51 52 51 47 47 48 48 48 47 46 45 43 42 41 40 40 39 38 37 37 37 37 36 36 35 35 35 34 34 33 33 32 31 31 30 30 30 30 30 29 29 28 27 26
54 55 54 53 53 52 53 51 48 48 48 49 49 48 47 46 45 43 42 41 40 40 39 38 38 38 37 37 37 36 36 36 36 36 35 35 34 33 33 32 31 32 32 32 32 31 30 29 28
51 53 54 54 53 54 54 52 49 48 48 48 49 49 48 47 45 44 43 42 41 41 40 39 38 38 38 38 38 38 37 37 37 37 37 37 36 35 36 34 33 34 34 33 33 32 32 31 30
50 51 52 52 52 54 54 52 50 50 50 49 49 49 48 47 46 45 44 43 42 42 41 40 39 39 39 39 38 38 38 38 38 38 38 38 37 37 37 36 35 35 35 34 35 35 33 32 32
48 50 50 50 50 52 52 51 50 50 49 49 49 49 48 48 47 46 45 44 43 42 42 40 40 40 39 39 39 39 38 38 38 38 39 39 39 38 37 37 36 36 36 35 35 35 35 34 33
47 48 49 49 48 50 51 51 49 49 49 49 49 49 48 48 47 47 46 45 44 43 42 41 40 40 40 40 40 40 39 39 38 38 38 39 39 39 39 38 37 37 36 36 35 35 35 35 35
45 45 46 47 47 49 49 50 49 48 49 49 48 48 48 48 47 47 46 45 44 43 42 42 41 41 41 41 41 40 39 39 39 39 39 39 40 39 39 39 38 38 37 36 36 35 35 35 35
42 42 43 44 45 48 48 49 48 48 47 47 46 46 47 48 48 47 46 45 45 44 43 43 42 42 42 42 41 41 40 40 40 40 39 39 39 40 40 40 39 38 37 37 37 36 36 36 36
39 40 40 40 41 44 45 47 47 46 46 45 44 45 46 47 48 47 47 46 46 45 44 44 43 43 42 42 42 41 41 40 40 41 40 39 39 40 41 40 39 38 38 37 37 37 37 37 37
36 37 37 38 39 41 42 45 46 44 44 44 44 45 45 46 47 47 47 47 46 46 45 45 44 43 43 42 42 41 41 41 41 40 40 40 40 40 41 40 39 39 38 38 38 38 37 37 37
33 35 37 37 37 38 40 42 43 42 43 43 44 45 45 46 46 46 46 46 45 45 44 45 45 44 43 42 42 42 41 41 41 40 40 40 41 40 41 41 40 39 39 39 39 39 38 38 38
30 33 34 34 35 36 39 39 40 40 41 42 42 44 46 45 45 45 45 45 45 44 44 43 44 44 43 43 43 42 41 41 41 40 40 40 40 40 40 40 40 40 40 39 39 39 38 39 39
26 30 33 33 32 33 36 37 38 38 39 40 41 43 44 44 45 45 44 45 45 45 44 44 44 44 43 43 42 42 41 41 41 41 41 41 40 40 41 41 40 40 40 40 40 40 40 40 40
24 28 31 32 32 32 33 35 36 36 37 38 39 40 42 42 43 43 43 43 44 44 44 44 44 44 43 43 43 42 41 41 40 40 40 40 40 40 40 41 41 41 41 41 41 41 41 41 41
23 25 27 29 30 32 32 32 34 34 35 36 37 38 40 42 42 43 42 43 43 43 43 44 45 44 43 43 43 43 43 42 41 40 40 40 40 40 40 40 41 42 42 43 42 42 42 42 42
Wind_Direction
243 243 243 242 242 242 242 239 238 236 234 234 234 235 236 236 235 236 235 234 233 233 233 233 233 233 232 232 234 235 237 236 236 237 236 237 237 238 237 237 236 236 235 235 235 237 236 233 230
243 243 243 242 243 243 241 238 237 236 235 235 236 236 236 236 235 235 235 234 234 234 233 232 232 233 234 234 235 236 237 236 237 238 238 237 238 241 241 240 238 239 240 239 239 241 242 240 237
243 242 243 243 243 244 242 238 237 237 236 235 236 237 236 236 234 233 233 233 233 234 233 233 232 233 234 235 235 236 236 236 237 239 239 238 240 241 242 242 241 242 242 243 244 244 243 242 241
244 243 243 243 243 242 241 238 237 237 238 237 237 237 237 236 235 234 233 233 233 234 234 234 234 234 234 235 236 236 236 236 237 239 240 240 240 241 242 243 243 244 244 244 244 245 246 244 242
244 244 244 244 243 241 239 238 237 237 238 237 237 238 237 237 236 235 235 234 234 235 235 236 236 235 235 235 236 236 236 236 237 238 239 239 240 241 242 245 246 246 246 246 246 246 248 247 245
245 244 244 244 243 241 240 238 238 239 239 238 237 237 237 237 236 235 234 234 234 235 235 236 236 236 236 235 235 236 236 237 238 239 239 239 240 242 244 246 248 248 246 246 248 248 249 248 245
246 245 245 244 243 242 241 240 239 239 239 238 237 237 237 237 236 235 234 233 234 235 236 236 236 236 236 236 236 236 237 237 238 240 240 241 242 243 245 248 249 250 249 249 249 250 250 249 246
247 246 245 244 243 242 241 241 239 239 240 238 237 236 236 237 236 235 235 234 234 236 237 237 237 237 237 237 237 237 238 238 238 240 240 242 243 244 246 248 249 250 251 251 249 249 251 250 249
247 246 246 245 244 242 241 241 239 239 240 239 237 237 237 236 236 236 236 237 237 237 239 239 238 237 237 237 238 238 239 239 238 239 240 242 244 245 246 248 249 250 251 251 250 250 251 251 251
247 247 247 246 245 243 241 241 240 239 239 239 238 237 237 237 236 237 237 239 239 239 239 239 239 239 239 239 239 239 240 240 239 239 240 241 243 245 246 248 249 249 250 250 251 251 251 251 252
248 248 247 246 245 243 241 240 240 240 240 239 239 238 238 237 237 237 237 239 239 239 239 240 240 240 240 240 240 240 240 241 241 240 241 242 244 245 246 247 249 249 248 250 251 251 250 252 253
248 247 246 245 244 243 242 240 239 239 240 239 238 238 238 238 238 238 238 239 239 240 240 241 240 241 241 241 241 241 242 242 242 241 242 242 244 245 246 247 248 248 249 250 251 250 250 252 254
248 247 245 244 244 243 242 240 239 238 239 239 238 238 238 239 238 238 238 239 239 240 240 241 241 242 242 242 242 242 243 244 244 243 243 243 243 245 247 247 247 247 249 250 251 251 252 253 254
249 246 245 244 243 243 242 240 238 237 239 239 238 238 238 238 238 238 239 239 239 240 240 240 241 242 242 243 243 243 243 244 244 243 243 243 243 244 246 247 247 248 248 250 252 252 254 254 255
248 247 245 244 243 243 242 240 239 238 238 238 238 238 237 237 238 238 238 238 239 239 239 240 241 242 242 243 243 243 242 243 243 243 243 243 243 243 245 246 247 248 249 250 252 252 254 254 254
247 246 245 243 242 241 241 240 238 237 237 237 238 237 236 237 237 237 238 238 238 239 239 239 240 241 242 242 242 242 243 243 243 243 243 244 245 246 246 247 248 249 251 251 251 251 253 254 254
247 246 245 243 241 240 240 240 237 237 237 237 237 237 236 236 236 237 237 237 238 238 239 239 239 239 239 240 241 242 243 244 244 244 244 245 246 246 247 249 249 249 250 251 251 250 251 253 253
247 246 244 242 240 240 240 239 237 237 237 237 237 236 236 235 236 236 236 237 237 238 239 239 239 238 238 240 242 243 243 244 244 244 245 245 246 247 248 249 250 250 250 249 250 250 251 252 252
247 245 243 241 240 240 239 239 237 236 236 236 236 236 234 234 234 235 236 236 237 238 238 239 238 238 239 240 241 242 243 243 243 243 244 245 245 247 247 249 250 250 250 249 249 250 250 251 251
245 243 241 240 240 240 240 238 236 235 235 235 235 234 233 232 232 233 235 236 237 238 238 238 238 237 238 239 240 241 242 243 243 243 244 245 245 246 247 249 250 250 249 249 249 249 250 251 252
243 241 240 239 238 238 238 237 234 233 233 234 234 234 233 231 231 232 233 235 236 237 237 236 237 237 237 238 239 241 242 242 243 243 244 245 245 245 247 248 249 249 249 249 248 249 250 251 251
242 240 239 238 237 237 236 237 232 232 233 233 233 233 233 231 230 231 232 233 234 236 236 236 236 236 237 238 239 240 242 243 243 242 243 244 245 246 246 247 247 247 248 247 247 249 251 251 251
240 238 237 236 237 237 235 237 232 231 231 231 231 232 232 231 230 230 231 232 233 234 235 235 236 237 237 238 239 240 242 243 243 243 244 245 245 246 247 247 246 246 247 247 248 249 250 251 252
238 237 234 233 235 236 234 235 232 230 230 230 230 231 231 231 230 230 230 231 232 233 234 234 235 236 237 238 239 241 242 243 243 244 245 246 246 246 247 247 245 245 247 248 248 249 250 251 252
236 234 230 230 234 235 231 233 233 230 230 229 229 230 230 230 230 230 229 230 232 233 234 234 235 236 237 238 239 241 242 242 242 243 245 246 247 247 245 244 244 244 246 247 248 249 250 252 253
234 231 229 230 233 234 232 233 232 231 230 230 229 229 229 229 229 229 229 229 230 232 233 234 235 236 237 238 239 240 242 243 243 243 244 245 247 247 245 243 243 244 245 246 248 250 251 252 254
234 229 227 229 231 231 231 232 231 229 229 229 228 228 228 229 229 229 229 229 230 231 233 234 234 235 236 238 239 240 241 242 243 243 244 244 245 245 244 242 242 243 245 247 249 251 251 252 254
232 227 224 225 227 228 228 230 230 229 227 227 227 228 227 229 230 230 230 230 231 231 233 234 234 235 236 238 238 239 239 241 241 242 244 244 245 244 243 243 244 244 246 248 250 251 252 253 255
230 226 226 227 227 229 228 230 229 229 228 227 227 228 229 229 229 230 231 231 232 232 232 233 234 235 236 238 238 238 239 240 242 242 244 245 244 244 244 244 244 244 247 249 250 251 252 254 256
229 224 223 224 227 229 230 230 229 230 229 227 227 228 228 229 229 229 229 231 232 232 233 233 234 236 237 238 238 239 240 240 241 242 243 243 243 243 244 245 246 246 247 248 251 252 253 256 257
Height
5815 5817 5819 5820 5822 5824 5826 5829 5830 5832 5833 5834 5836 5837 5839 5841 5844 5847 5847 5847 5849 5850 5852 5853 5854 5856 5857 5859 5860 5862 5863 5864 5865 5866 5867 5868 5869 5869 5870 5871 5871 5872 5872 5873 5873 5873 5874 5874 5874
5810 5812 5814 5815 5816 5818 5822 5825 5826 5827 5828 5830 5831 5833 5834 5837 5839 5842 5843 5844 5846 5847 5849 5850 5852 5854 5855 5857 5858 5860 5861 5862 5864 5865 5866 5866 5867 5868 5869 5869 5870 5871 5871 5872 5872 5873 5873 5874 5874
5804 5806 5808 5809 5811 5814 5818 5820 5821 5822 5823 5825 5827 5828 5831 5833 5835 5837 5839 5841 5842 5844 5846 5847 5849 5851 5852 5854 5856 5857 5859 5860 5862 5863 5864 5865 5866 5867 5867 5868 5869 5869 5870 5871 5871 5872 5872 5873 5873
5798 5800 5801 5804 5806 5810 5812 5814 5816 5817 5818 5820 5822 5823 5826 5829 5831 5833 5835 5837 5839 5840 5842 5844 5845 5847 5849 5851 5853 5855 5856 5858 5859 5861 5862 5863 5864 5865 5866 5867 5867 5868 5869 5869 5870 5870 5871 5871 5872
5791 5792 5794 5797 5800 5804 5806 5808 5809 5811 5813 5815 5817 5818 5821 5824 5826 5828 5830 5832 5835 5836 5838 5840 5842 5844 5846 5848 5850 5852 5853 5855 5857 5858 5859 5861 5862 5863 5864 5865 5866 5866 5867 5868 5868 5869 5870 5870 5871
5783 5785 5787 5790 5795 5797 5800 5801 5803 5805 5807 5809 5811 5813 5816 5818 5821 5823 5825 5828 5830 5832 5834 5836 5838 5840 5842 5844 5846 5848 5850 5852 5854 5855 5857 5858 5859 5861 5862 5863 5864 5864 5865 5866 5867 5867 5868 5868 5869
5775 5777 5779 5784 5787 5790 5793 5794 5796 5798 5800 5803 5805 5807 5810 5812 5815 5818 5820 5822 5825 5827 5829 5831 5833 5835 5838 5840 5842 5844 5846 5848 5850 5852 5854 5855 5857 5858 5859 5860 5861 5862 5863 5864 5865 5865 5866 5867 5867
5766 5768 5771 5775 5779 5783 5786 5787 5789 5791 5793 5796 5799 5801 5804 5807 5809 5812 5814 5817 5819 5822 5824 5827 5829 5831 5833 5835 5838 5840 5842 5844 5846 5848 5850 5852 5853 5855 5856 5857 5858 5860 5861 5861 5862 5863 5864 5864 5865
5756 5759 5762 5768 5771 5775 5777 5778 5781 5783 5786 5789 5792 5795 5798 5800 5802 5805 5808 5811 5814 5816 5819 5821 5824 5826 5828 5831 5833 5835 5837 5840 5842 5844 5846 5848 5850 5851 5853 5854 5855 5856 5858 5859 5860 5860 5861 5862 5862
5746 5749 5755 5760 5762 5764 5767 5769 5772 5775 5778 5781 5785 5787 5790 5793 5796 5799 5802 5805 5808 5810 5813 5815 5818 5820 5823 5826 5828 5830 5833 5835 5837 5839 5841 5844 5845 5847 5849 5850 5851 5853 5854 5855 5856 5857 5858 5859 5859
5735 5740 5746 5748 5750 5753 5756 5759 5762 5766 5769 5773 5777 5780 5782 5785 5789 5792 5795 5798 5801 5804 5806 5809 5812 5814 5817 5820 5822 5825 5827 5830 5832 5834 5837 5839 5841 5842 5844 5846 5847 5849 5850 5852 5853 5854 5855 5856 5856
5724 5729 5733 5736 5738 5741 5745 5749 5752 5756 5761 5764 5767 5770 5774 5777 5781 5784 5788 5791 5794 5797 5800 5802 5805 5808 5811 5814 5816 5819 5822 5824 5826 5829 5831 5833 5835 5837 5839 5841 5843 5844 5846 5847 5849 5850 5851 5852 5853
5711 5717 5720 5723 5726 5729 5733 5736 5741 5746 5750 5754 5757 5761 5765 5769 5773 5776 5779 5783 5786 5789 5792 5795 5798 5801 5804 5807 5810 5812 5815 5818 5820 5822 5825 5827 5830 5832 5834 5836 5838 5839 5841 5843 5844 5846 5847 5848 5849
5699 5702 5706 5709 5713 5716 5720 5724 5728 5736 5739 5742 5747 5751 5755 5759 5763 5767 5771 5775 5778 5781 5785 5788 5791 5794 5797 5800 5803 5805 5808 5811 5813 5816 5818 5821 5823 5826 5828 5830 5832 5834 5836 5838 5839 5841 5842 5843 5844
5684 5687 5691 5696 5699 5703 5706 5710 5718 5725 5727 5731 5736 5741 5745 5749 5753 5758 5762 5766 5770 5773 5776 5780 5783 5786 5789 5792 5795 5798 5800 5803 5806 5809 5812 5814 5817 5819 5822 5824 5826 5828 5830 5832 5834 5836 5837 5838 5840
5668 5670 5676 5683 5686 5689 5693 5698 5707 5711 5714 5719 5724 5729 5734 5739 5744 5748 5753 5757 5760 5764 5768 5771 5774 5777 5780 5784 5787 5790 5793 5796 5799 5802 5805 5807 5810 5813 5815 5818 5820 5822 5824 5826 5828 5830 5831 5833 5834
5651 5655 5661 5668 5672 5675 5679 5686 5694 5698 5702 5707 5712 5717 5723 5728 5733 5738 5743 5747 5751 5755 5759 5763 5766 5769 5772 5776 5779 5782 5785 5789 5792 5795 5797 5800 5803 5806 5808 5811 5813 5815 5817 5819 5821 5823 5825 5827 5828
5638 5642 5646 5652 5658 5661 5665 5673 5681 5685 5690 5695 5700 5705 5711 5717 5724 5728 5733 5737 5742 5746 5750 5753 5757 5760 5764 5767 5771 5774 5777 5781 5784 5787 5790 5793 5796 5798 5801 5803 5805 5807 5810 5812 5814 5816 5818 5820 5822
5623 5627 5631 5638 5643 5647 5653 5660 5667 5672 5677 5683 5688 5693 5700 5707 5713 5718 5722 5727 5732 5736 5740 5744 5748 5751 5755 5759 5762 5765 5769 5772 5775 5779 5782 5785 5788 5790 5793 5795 5798 5800 5802 5804 5807 5809 5811 5813 5815
5609 5612 5618 5624 5630 5633 5639 5646 5653 5658 5664 5670 5676 5682 5689 5696 5702 5707 5712 5717 5722 5727 5731 5735 5739 5743 5746 5750 5754 5757 5760 5763 5767 5770 5773 5776 5779 5782 5785 5787 5789 5792 5794 5796 5799 5801 5803 5806 5807
5596 5601 5606 5611 5616 5620 5626 5632 5640 5646 5652 5658 5665 5671 5677 5684 5691 5697 5702 5707 5712 5717 5721 5726 5730 5734 5738 5741 5745 5748 5751 5755 5758 5761 5765 5768 5770 5773 5776 5778 5781 5783 5786 5788 5791 5793 5796 5798 5800
5585 5590 5594 5599 5604 5609 5615 5619 5628 5634 5640 5647 5654 5660 5666 5673 5680 5686 5692 5697 5702 5707 5712 5716 5720 5724 5728 5732 5736 5739 5743 5746 5750 5753 5756 5759 5762 5764 5767 5769 5772 5774 5777 5780 5782 5785 5787 5790 5792
5574 5579 5583 5588 5592 5597 5603 5608 5616 5622 5629 5637 5644 5650 5656 5663 5670 5676 5682 5687 5692 5697 5702 5706 5711 5715 5719 5723 5727 5731 5734 5737 5740 5743 5746 5749 5752 5755 5757 5760 5763 5766 5769 5771 5774 5777 5779 5781 5784
5564 5569 5573 5577 5581 5585 5594 5598 5604 5613 5621 5629 5635 5640 5646 5652 5659 5666 5671 5677 5682 5687 5692 5697 5701 5705 5710 5714 5718 5721 5725 5728 5731 5734 5737 5740 5743 5746 5748 5750 5754 5757 5760 5763 5766 5768 5771 5773 5775
5555 5560 5564 5567 5570 5576 5585 5587 5594 5604 5612 5618 5624 5630 5636 5642 5648 5655 5661 5667 5672 5677 5682 5687 5692 5696 5700 5704 5708 5712 5715 5719 5722 5725 5728 5731 5734 5736 5739 5742 5745 5748 5751 5754 5757 5760 5762 5764 5767
5547 5551 5556 5559 5563 5569 5574 5577 5586 5594 5601 5607 5613 5619 5625 5631 5638 5644 5651 5657 5662 5667 5672 5677 5682 5686 5691 5695 5699 5703 5706 5710 5713 5716 5719 5722 5725 5727 5730 5733 5736 5739 5742 5745 5748 5751 5753 5756 5758
5539 5543 5549 5553 5556 5561 5565 5570 5577 5584 5591 5597 5603 5609 5615 5622 5628 5635 5641 5646 5652 5657 5663 5668 5672 5677 5681 5685 5689 5693 5697 5700 5704 5707 5710 5713 5715 5718 5721 5724 5727 5731 5734 5737 5739 5742 5744 5747 5749
5533 5537 5542 5545 5549 5552 5557 5562 5569 5575 5582 5588 5594 5600 5606 5613 5619 5625 5631 5636 5642 5647 5653 5658 5662 5667 5671 5675 5680 5684 5687 5691 5694 5698 5701 5704 5706 5709 5712 5715 5719 5722 5725 5728 5730 5733 5735 5737 5739
5528 5532 5535 5539 5542 5547 5550 5558 5562 5568 5574 5580 5586 5591 5597 5603 5609 5615 5621 5626 5632 5637 5642 5647 5652 5657 5661 5666 5670 5674 5678 5682 5685 5688 5691 5694 5697 5700 5703 5706 5709 5712 5715 5718 5721 5724 5726 5728 5730
5522 5525 5530 5534 5537 5541 5545 5553 5555 5561 5566 5571 5577 5582 5588 5594 5600 5606 5611 5616 5622 5627 5632 5637 5642 5647 5651 5655 5660 5664 5668 5671 5675 5679 5682 5685 5688 5691 5694 5697 5700 5703 5706 5709 5711 5714 5716 5718 5720